STARLINK-35847, 66621

Orbit data source: Space-Track

STARLINK-35847, 66621 is a payload satellite owned by SpaceX/Seattle (US) in LEO that was launched on Sun, 23 Nov 2025 UTC via an FALCON 9 launch vehicle from the Air Force Western Test Range (AFWTR). Payload-class satellites include a variety of spacecraft equipped with specific instruments for various scientific and technological missions. These include communications satellites like Starlink; space stations such as the ISS; scientific satellites like the Hubble; Earth observation satellites from companies like Planet Labs, Umbra, and HawkEye 360; GPS; miniature CubeSats for education and research; and military/defense satellites.

Loading next visibility...
Identifier
66621, 2025-271E
Orbit
LEO
Country
Flag of USUS
Related business
Manufacturer
SpaceX/Seattle
Mission
Operational Commercial Communications
Bus & Motor
STARLINK V2MO, Unknown motor
Mass
575 kg wet, ~530 kg dry
Launch date (UTC)
2025-11-23 (2 months ago)
Launch vehicle
FALCON 9
Launch site
Air Force Western Test Range (AFWTR)
Object type
Payload
Rocket body
Debris
Shape & HBR
Box + 2 Pan, 17.7 m
Radar Cross Section
36.964 m²

Expand to show TLE details & history
Last TLE update: 11 hours ago

TLE from 11 hours ago
0 STARLINK-35847
1 66621U 25271E   26036.94531487  .00032856  00000-0  11168-2 0  9999
2 66621  53.1601 287.5747 0001001 126.9502 233.1591 15.30193889 12707
Epoch: 2026-02-05T22:41Z
TLE epoch observation values (Epoch: 2026-02-05T22:41:15.204Z)
Latitude
-0°
Longitude
171.17109°
Altitude
476.544 km
Speed
7.628 km/s
True Right ascension
19h 10m 17s
True Declination
0° 00' 00"
Sunlit
Object was in daylight at epoch
Visualization orbit readout
Latitude
Unknown
Longitude
Unknown
Altitude
Unknown
Speed
Unknown
Apparent Right ascension
Unknown
Apparent Declination
Unknown
Sunlit
N/A
Visualization observer readout
Local Sidereal Time
12:08:30
Azimuth
Unknown
Elevation
Unknown
Doppler factor
Unknown
Orbital elements
Apogee altitude
476.176 km
Perigee altitude
474.804 km
Semi-major axis
6,853.627 km
Eccentricity
0.0001
Inclination
53.1601°
RAAN
287.5747°
Arg. of periapsis
126.9502°
True anomaly
233.14992°
Mean anomaly
233.1591°
Eccentric anomaly
233.15451°
Mean motion
3.82527 °/min
Orbital period
94.11 mins
BSTAR
0.0011168
Loading maneuver chart data...
Computing Atmospheric mass density...
Loading historical data...
Loading historical data...
Loading historical data...
Loading historical data...
Loading historical data...
Loading historical data...
Loading historical data...

Documentation

Showing up to 5 results
|